#timestamp,LO_Frequency,Hit,StdDev 
1457841615.7,286047004.4,N
1457841635.5,286047003.9,N
1457841655.3,286047001.4,N
1457841675.2,286047000.8,N
1457841695.9,286046996.9,N
1457841715.7,286046998.0,N
1457841735.6,286046999.0,N
1457841755.4,286046999.1,N
1457841775.2,286046998.9,N
1457841795.0,286047000.5,N
1457841796.0,286047000.5,N
1457841815.8,286047000.4,N
1457841835.6,286047002.4,N
1457841855.4,286047000.3,N
1457841875.3,286046999.0,N
1457841895.1,286046997.9,N
1457841915.8,286046997.4,N
1457841935.7,286046999.3,N
1457841955.5,286046999.1,N
1457841975.3,286046996.9,N
1457841995.2,286046999.2,N
1457842015.9,286046999.0,N
1457842035.7,286047000.0,N
1457842055.6,286047004.7,N
1457842075.4,286047006.0,N
1457842095.2,286047006.4,N
1457842115.1,286047003.4,N
1457842116.0,286047003.4,N
1457842135.8,286047003.6,N
1457842155.6,286047003.3,N
1457842175.5,286047004.7,N
1457842195.3,286047004.8,N
1457842215.1,286047004.6,N
1457842235.8,286047007.2,N
1457842255.7,286047004.7,N
1457842275.5,286047004.5,N
1457842295.3,286047007.1,N
1457842315.2,286047005.7,N
1457842335.9,286047005.5,N
1457842355.7,286047005.3,N
1457842375.6,286047004.1,N
1457842395.4,286047002.2,N
1457842415.2,286046999.5,N
1457842435.1,286046999.1,N
1457842436.0,286046999.1,N
1457842455.8,286046999.5,N
1457842475.6,286046996.2,N
1457842495.5,286046996.7,N
1457842515.3,286046995.4,N
1457842535.1,286046995.8,N
1457842555.9,286046996.0,N
1457842575.7,286046998.0,N
1457842595.5,286046997.3,N
1457842615.3,286046999.1,N
1457842635.2,286047004.3,N
1457842655.0,286047002.2,N
1457842655.9,286047002.2,N
1457842675.7,286047007.5,N
1457842695.6,286047003.7,N
1457842715.4,286047004.5,N
1457842735.2,286047010.4,N
1457842755.1,286047009.8,N
1457842756.0,286047009.8,N
1457842775.8,286047013.5,Y
1457842795.6,286047009.2,P
1457842815.5,286047007.0,N
1457842835.3,286047007.4,N
1457842855.1,286047008.4,Y
1457842875.9,286047000.0,P
1457842895.7,286046997.8,N
1457842915.5,286046993.6,N
1457842935.4,286046993.7,N
1457842955.2,286046994.9,N
1457842975.0,286046994.9,N
1457842975.9,286046994.9,N
1457842995.8,286046998.2,N
1457843015.6,286046998.5,N
1457843035.4,286046997.0,N
1457843055.3,286046995.3,N
1457843075.1,286046998.7,N
1457843076.0,286046998.7,N
1457843095.8,286047001.7,N
1457843115.6,286047001.1,N
1457843135.5,286047000.9,N
1457843155.3,286047001.0,N
1457843175.1,286047003.3,N
1457843195.9,286047006.0,N
1457843215.7,286047003.6,N
1457843235.5,286047001.9,N
1457843255.4,286047002.0,N
1457843275.2,286046998.2,N
1457843295.0,286046997.3,N
1457843295.9,286046997.3,N
1457843315.8,286046998.1,N
1457843335.6,286046998.6,N
1457843355.4,286046999.2,N
1457843375.3,286046999.8,N
1457843395.1,286047001.2,N
1457843396.0,286047001.2,N
1457843415.8,286046999.9,N
1457843435.6,286047002.1,N
1457843455.5,286047002.2,N
1457843475.3,286047000.1,N
1457843495.1,286046999.2,N
1457843515.9,286047001.1,N
1457843535.7,286047000.9,N
1457843555.5,286046999.5,N
1457843575.4,286046999.7,N
1457843595.2,286047004.2,N
1457843615.0,286047002.6,N
1457843615.9,286047002.6,N
1457843635.8,286047001.0,N
1457843655.6,286047001.2,N
1457843675.4,286047002.8,N
1457843695.3,286047000.2,N
1457843715.1,286046998.8,N
1457843716.0,286046998.8,N
1457843735.8,286046998.6,N
1457843755.7,286046998.5,N
1457843775.5,286047001.8,N
1457843795.3,286047003.0,N
1457843815.2,286047003.7,N
1457843835.9,286047007.1,Y
1457843855.7,286047002.9,P
1457843875.6,286047003.5,P
1457843895.4,286047003.2,N
1457843915.2,286046999.7,N
1457843935.0,286046998.7,N
1457843935.9,286046998.7,N
1457843955.8,286046999.4,N
1457843975.6,286047000.5,N
1457843995.4,286047001.5,N
1457844015.3,286047001.7,N
1457844035.1,286047005.3,Y
1457844055.8,286047003.3,P
1457844075.7,286047003.1,N
1457844095.5,286047004.4,P
1457844115.3,286047002.0,N
1457844135.2,286047003.7,Y
1457844155.0,286047002.2,P
1457844155.9,286047002.2,P
1457844175.7,286047001.6,P
1457844195.6,286047004.3,Y
1457844215.4,286047000.9,P
1457844235.2,286046998.6,N
1457844255.1,286046999.4,N
1457844256.0,286046999.4,N
1457844275.8,286046995.7,Y
1457844295.7,286046996.0,P
1457844315.5,286046997.1,N
1457844335.3,286046995.5,N
1457844355.1,286046999.5,N
1457844375.9,286046996.6,N
1457844395.7,286046998.9,N
1457844415.5,286046996.5,N
1457844435.4,286046996.9,N
1457844455.2,286046997.3,N
1457844475.0,286046997.1,N
1457844475.9,286046997.1,N
1457844495.8,286046997.0,N
1457844515.6,286046996.9,N
1457844535.4,286046997.7,N
1457844555.3,286046994.1,Y
1457844575.1,286046990.4,P
1457844576.0,286046990.4,N
1457844595.8,286046988.9,P
1457844615.7,286046989.1,Y
1457844635.5,286046996.4,P
1457844655.3,286046991.6,P
1457844675.2,286046988.2,P
1457844695.9,286046985.8,Y
1457844715.7,286046996.2,P
1457844735.6,286046996.6,N
1457844755.4,286046999.5,N
1457844775.2,286046997.5,N
1457844795.1,286046995.9,N
1457844796.0,286046995.9,N
1457844815.8,286046995.8,N
1457844835.6,286046995.3,N
1457844855.4,286046994.8,N
1457844875.3,286046992.4,Y
1457844895.1,286046996.1,P
1457844915.9,286046995.0,P
1457844935.7,286046998.4,P
1457844955.5,286046995.3,Y
1457844975.4,286047002.8,P
1457844995.2,286047003.9,N
1457845015.0,286047002.2,N
1457845015.9,286047002.2,N
1457845035.7,286047003.9,N
1457845055.6,286047003.7,N
1457845075.4,286046999.9,N
1457845095.2,286047001.2,N
1457845115.1,286046999.1,N
1457845116.0,286046999.1,N
1457845135.8,286046999.9,N
1457845155.6,286047000.2,N
1457845175.5,286047000.5,N
1457845195.3,286046999.9,N
